Overview Statistics Trail Chart Weather Telemetry Raw packets
 

This is the latest recevied weather packets stored in our database for station/object N0QWM. If no packets are shown the sender has not sent any weather packets the latest 10 day(s).

<< 97 98 99 100 101 102 103 >>
Time Temp. Humidity Pressure Rain* Wind** Luminosity Snow
1787925266 26.67° C 88% 1022.9 hPa 0 mm - 336 W/m² -
1787924965 26.67° C 91% 1023 hPa 0 mm - 551 W/m² -
1787924660 26.11° C 91% 1022.7 hPa 0 mm - 147 W/m² -
1787924355 25.56° C 93% 1022.7 hPa 0 mm - 73 W/m² -
1787924049 25.56° C 94% 1022.8 hPa 0 mm - 78 W/m² -
1787923744 25° C 96% 1022.5 hPa 0 mm - 72 W/m² -
1787923440 25° C 97% 1022.6 hPa 0 mm - 70 W/m² -
1787923135 25° C 97% 1022.6 hPa 0 mm - 55 W/m² -
1787922830 25° C 97% 1022.6 hPa 0 mm - 64 W/m² -
1787922529 24.44° C 99% 1022.7 hPa 0 mm - 80 W/m² -
1787922229 23.89° C 99% 1022.7 hPa 0 mm - 73 W/m² -
1787921926 23.89° C 99% 1022.8 hPa 0 mm - 64 W/m² -
1787921620 23.89° C 99% 1022.6 hPa 0 mm - 60 W/m² -
1787921319 23.33° C 99% 1022.6 hPa 0 mm - 54 W/m² -
1787921016 23.33° C 99% 1022.6 hPa 0 mm - 52 W/m² -
1787920711 23.33° C 99% 1022.4 hPa 0 mm - 47 W/m² -
1787920411 23.33° C 99% 1022.4 hPa 0 mm - 46 W/m² -
1787920108 23.33° C 99% 1022.5 hPa 0 mm - 42 W/m² -
1787919803 23.33° C 99% 1022.5 hPa 0 mm - 40 W/m² -
1787919501 23.33° C 99% 1022.6 hPa 0 mm - 37 W/m² -
1787919198 22.78° C 99% 1022.3 hPa 0 mm - 34 W/m² -
1787918892 22.78° C 99% 1022.3 hPa 0 mm - 28 W/m² -
1787918588 22.78° C 99% 1022 hPa 0 mm - 25 W/m² -
1787918285 22.78° C 99% 1022.1 hPa 0 mm - 23 W/m² -
1787917980 22.78° C 99% 1022 hPa 0 mm - 19 W/m² -

* Rain latest hour (hover to see other rain measurements)
** Current wind speed in m/s (hover to see current wind gust speed)